TimeEST,TemperatureF,Dew PointF,Humidity,Sea Level PressureIn,VisibilityMPH,Wind Direction,Wind SpeedMPH,Gust SpeedMPH,PrecipitationIn,Events,Conditions,WindDirDegrees,DateUTC
12:53 AM,36.0,26.1,67,30.17,10.0,SE,4.6,-,N/A,,Overcast,140,2012-11-06 05:53:00
1:53 AM,36.0,25.0,64,30.16,10.0,SE,5.8,-,N/A,,Overcast,140,2012-11-06 06:53:00
2:53 AM,36.0,24.1,62,30.16,10.0,SE,8.1,-,N/A,,Overcast,140,2012-11-06 07:53:00
3:53 AM,36.0,25.0,64,30.14,10.0,ESE,8.1,-,N/A,,Overcast,120,2012-11-06 08:53:00
4:53 AM,34.0,24.1,67,30.14,10.0,SE,10.4,-,N/A,,Overcast,130,2012-11-06 09:53:00
5:53 AM,34.0,23.0,64,30.14,10.0,ESE,9.2,-,N/A,,Overcast,120,2012-11-06 10:53:00
6:53 AM,34.0,23.0,64,30.13,10.0,SE,6.9,-,N/A,,Overcast,130,2012-11-06 11:53:00
7:53 AM,34.0,23.0,64,30.13,10.0,ESE,11.5,17.3,N/A,,Overcast,110,2012-11-06 12:53:00
8:53 AM,36.0,23.0,59,30.14,10.0,ESE,8.1,-,N/A,,Clear,120,2012-11-06 13:53:00
9:53 AM,37.9,23.0,55,30.13,10.0,ESE,8.1,-,N/A,,Clear,120,2012-11-06 14:53:00
10:53 AM,39.9,24.1,53,30.12,10.0,ENE,4.6,-,N/A,,Clear,60,2012-11-06 15:53:00
11:53 AM,42.1,24.1,49,30.10,10.0,NE,4.6,-,N/A,,Clear,50,2012-11-06 16:53:00
12:53 PM,42.1,27.0,55,30.07,10.0,North,8.1,-,N/A,,Clear,360,2012-11-06 17:53:00
1:53 PM,44.1,28.0,53,30.04,10.0,North,-9999.0,-,N/A,,Clear,0,2012-11-06 18:53:00
2:53 PM,44.1,30.9,60,30.02,-9999.0,NNE,11.5,-,N/A,,Clear,20,2012-11-06 19:53:00
3:53 PM,42.1,32.0,67,30.02,10.0,NNE,15.0,-,N/A,,Clear,30,2012-11-06 20:53:00
4:53 PM,41.0,32.0,70,30.00,10.0,NE,12.7,-,N/A,,Clear,50,2012-11-06 21:53:00
5:53 PM,39.0,30.0,70,30.01,10.0,ENE,9.2,-,N/A,,Clear,60,2012-11-06 22:53:00
6:53 PM,37.9,28.0,68,30.02,10.0,ENE,9.2,-,N/A,,Clear,70,2012-11-06 23:53:00
7:53 PM,37.0,27.0,67,30.02,10.0,East,11.5,-,N/A,,Clear,80,2012-11-07 00:53:00
8:53 PM,37.0,28.0,70,30.01,10.0,East,8.1,-,N/A,,Clear,80,2012-11-07 01:53:00
9:53 PM,36.0,27.0,70,30.00,-9999.0,East,5.8,-,N/A,,Clear,90,2012-11-07 02:53:00
10:53 PM,36.0,27.0,70,29.98,10.0,ESE,4.6,-,N/A,,Clear,110,2012-11-07 03:53:00
11:53 PM,35.1,25.0,67,29.97,-9999.0,Calm,Calm,-,N/A,,Clear,0,2012-11-07 04:53:00